Location: White Rock
(35.8256°N, 106.1876°W)
Time: 21:04:40
(UTC-06:00)

Envisat - Visible Passes

Search period start: 20 October 2021 00:00
Search period end: 30 October 2021 00:00
Orbit: 764 x 766 km, 98.2° (Epoch: 20 October)

Date Brightness Start Highest point End Pass type
(mag) Time Alt. Az. Time Alt. Az. Time Alt. Az.
20 Oct 3.7 05:52:16 10° NNE 05:57:16 57° E 06:02:13 10° S visible
20 Oct 6.3 18:45:25 10° WSW 18:48:03 14° W 18:50:41 10° WNW visible
21 Oct 5.3 05:16:11 10° NE 05:20:15 24° E 05:24:19 10° SSE visible
22 Oct 2.9 06:17:30 10° N 06:22:35 79° WNW 06:27:37 10° SSW visible
23 Oct 4.2 05:40:52 10° NNE 05:45:42 44° E 05:50:31 10° S visible
24 Oct 5.7 05:05:09 10° NE 05:08:39 19° E 05:12:08 10° SE visible
24 Oct 3.3 06:43:01 10° N 06:47:48 43° WNW 06:52:34 10° SW visible
25 Oct 3.1 06:05:58 10° NNE 06:11:04 81° ESE 06:16:08 10° S visible
26 Oct 4.7 05:29:33 10° NNE 05:34:08 34° E 05:38:41 10° SSE visible
27 Oct 6.0 04:54:22 10° ENE 04:57:01 14° E 04:59:40 10° ESE visible
27 Oct 3.1 06:31:22 10° N 06:36:20 56° WNW 06:41:16 10° SSW visible
28 Oct 3.5 05:54:29 10° NNE 05:59:32 62° E 06:04:32 10° S visible
28 Oct 6.4 18:48:06 10° WSW 18:50:21 13° W 18:52:37 10° WNW visible
29 Oct 5.1 05:18:20 10° NE 05:22:32 26° E 05:26:44 10° SSE visible
29 Oct 3.7 06:57:05 10° N 07:01:30 31° WNW 07:05:54 10° SW visible
